Find Starlink 34917

NORAD ID: 65190 Int'l Des: 2025-175 Owner: SPXS Country: US Constellation: starlink operational
LEOCIRCULARRETROGRADESSO

現在のビュー

3D地球を読み込み中...

About Starlink 34917

Starlink 34917 (NORAD 65190) is a starlink constellation satellite (v2 mini) launched Aug 14, 2025 by SPXS of US. It operates in LEO, CIRCULAR, RETROGRADE, SSO orbit with a mass of 575.00 kg.

次回通過

Passes for default location (London). Set your location on the main map for personalized predictions.

高度履歴

Loading altitude history...

軌道要素

1 65190U 25175S 26264.25004630 -.00054418 00000-0 -16939-2 0 9995
2 65190 97.2849 133.1971 0002254 93.6921 351.1426 15.33470296 5726
Epoch: Sep 21, 2026 • Age: 5 hours

現在のステータス

高度 489.1 km
遠地点 / 近地点 N/A
速度 7.62 km/s
衛星直下点 -57.55°S, 131.04°E
打ち上げ日 Aug 14, 2025
運用期間 1.1 years
タイプ internet

技術仕様

分類 Payload
質量 575.00 kg
乾燥質量 530.00 kg
長さ 0.30 m
スパン 29.00 m
形状 ? Box + pan
製造者 SPXS
バスタイプ Starlink V2MO
フェーズステータス In Orbit
所有者/国 SPXS/US

Most Searched